Weather History for Quillayute, WA

Change the Weather History Date:

Thursday, September 4, 2014

  Actual Average Record
Temperature  
Mean Temperature 60 °F 58 °F  
Max Temperature 77 °F 68 °F 88 °F (1991)
Min Temperature 42 °F 49 °F 38 °F (1998)
Degree Days  
Heating Degree Days 5 7  
Month to date heating degree days 27 27  
Since 1 July heating degree days 277 396  
Cooling Degree Days 0 0  
Month to date cooling degree days 0 0  
Year to date cooling degree days 18 17  
Growing Degree Days 10 (Base 50)    
Moisture  
Dew Point 49 °F    
Average Humidity 72    
Maximum Humidity 100    
Minimum Humidity 43    
Precipitation  
Precipitation 0.00 in 0.11 in 1.21 in (1979)
Month to date precipitation 0.15 0.41  
Year to date precipitation 56.00 57.13  
Sea Level Pressure  
Sea Level Pressure 30.10 in    
Wind  
Wind Speed 6 mph (NNW)    
Max Wind Speed 14 mph    
Max Gust Speed 19 mph    
Visibility 8 miles    
Events      
T = Trace of Precipitation, MM = Missing Value Source: NWS Daily Summary

Daily Weather History Graph

Daily Weather History Graph

Search for Another Location

Airport:

Trip Planner

Search our weather history database for the weather conditions in past years. The results will help you decide how hot, cold, wet, or windy it might be!

Date:

Astronomy

Sep. 04, 2014 Rise Set
Actual Time 6:40 AM PDT 7:52 PM PDT
Civil Twilight 6:08 AM PDT 8:24 PM PDT
Nautical Twilight 5:30 AM PDT 9:02 PM PDT
Astronomical Twilight 4:48 AM PDT 9:43 PM PDT
Moon 4:48 PM PDT (9/4) 1:23 AM PDT (9/4)
Length of Visible Light 14h 16m
Length of Day
13h 12m
Waxing Gibbous, 75% of the Moon is Illuminated
Sep 4
Waxing Gibbous
Sep 8
Full
Sep 15
Last Quarter
Sep 23
New
Oct 1
First Quarter

Hourly Weather History & Observations

Time (PDT) Temp. Windchill Dew Point Humidity Pressure Visibility Wind Dir Wind Speed Gust Speed Precip Events Conditions
12:53 AM 46.9 °F - 46.0 °F 97% 30.12 in 7.0 mi Calm Calm - N/A   Clear
1:53 AM 46.0 °F - 44.1 °F 93% 30.12 in 7.0 mi Calm Calm - N/A   Clear
2:53 AM 45.0 °F - 44.1 °F 97% 30.13 in 7.0 mi Calm Calm - N/A   Clear
3:53 AM 44.1 °F - 43.0 °F 96% 30.12 in 7.0 mi Calm Calm - N/A   Clear
4:53 AM 44.1 °F - 42.1 °F 93% 30.12 in 8.0 mi Calm Calm - N/A   Clear
5:53 AM 43.0 °F - 42.1 °F 97% 30.12 in 7.0 mi Calm Calm - N/A   Clear
6:53 AM 43.0 °F 41.3 °F 42.1 °F 97% 30.12 in 6.0 mi NNE 3.5 mph - N/A   Clear
7:53 AM 46.9 °F - 46.0 °F 97% 30.14 in 7.0 mi Calm Calm - N/A   Clear
8:53 AM 55.9 °F - 51.1 °F 84% 30.14 in 9.0 mi ENE 3.5 mph - N/A   Clear
9:53 AM 62.1 °F - 52.0 °F 70% 30.14 in 9.0 mi East 3.5 mph - N/A   Clear
10:53 AM 66.9 °F - 53.1 °F 61% 30.13 in 9.0 mi Calm Calm - N/A   Clear
11:53 AM 68.0 °F - 54.0 °F 61% 30.12 in 9.0 mi WSW 8.1 mph - N/A   Clear
12:53 PM 66.9 °F - 53.1 °F 61% 30.12 in 9.0 mi WSW 11.5 mph - N/A   Clear
1:53 PM 72.0 °F - 55.0 °F 55% 30.11 in 9.0 mi West 8.1 mph - N/A   Clear
2:53 PM 73.0 °F - 53.1 °F 49% 30.10 in 9.0 mi WNW 10.4 mph - N/A   Clear
3:53 PM 75.9 °F - 52.0 °F 43% 30.08 in 9.0 mi WNW 12.7 mph 18.4 mph N/A   Clear
4:53 PM 73.9 °F - 52.0 °F 46% 30.07 in 9.0 mi WNW 12.7 mph - N/A   Clear
5:53 PM 73.0 °F - 52.0 °F 48% 30.07 in 8.0 mi NW 6.9 mph - N/A   Clear
6:53 PM 68.0 °F - 52.0 °F 56% 30.07 in 8.0 mi NW 8.1 mph - N/A   Clear
7:53 PM 62.1 °F - 52.0 °F 70% 30.06 in 8.0 mi NNW 8.1 mph - N/A   Clear
8:53 PM 62.1 °F - 51.1 °F 67% 30.07 in 9.0 mi North 10.4 mph - N/A   Clear
9:53 PM 61.0 °F - 50.0 °F 67% 30.07 in 10.0 mi North 11.5 mph - N/A   Clear
10:53 PM 59.0 °F - 48.9 °F 69% 30.07 in 10.0 mi North 12.7 mph - N/A   Clear
11:53 PM 57.9 °F - 48.9 °F 72% 30.07 in 10.0 mi North 10.4 mph - N/A   Clear